Location: Unspecified
(0.0000°N, 0.0000°E)
Time: 04:12:19
(UTC+00:00)

COSMO-SKYMED 1 - Visible Passes

Search period start: 23 January 2018 00:00
Search period end: 02 February 2018 00:00
Orbit: 621 x 623 km, 97.9° (Epoch: 22 January)

Date Brightness Start Highest point End Pass type
(mag) Time Alt. Az. Time Alt. Az. Time Alt. Az.
24 Jan 5.4 04:50:31 10° ESE 04:53:11 16° ENE 04:55:50 10° NE visible
24 Jan 5.5 18:35:25 10° NW 18:38:00 16° WNW 18:40:35 10° WSW visible
25 Jan 4.6 05:07:26 10° SE 05:11:10 28° ENE 05:14:52 10° NNE visible
26 Jan 3.5 05:24:55 10° SSE 05:29:09 51° ENE 05:33:20 10° N visible
27 Jan 2.6 05:42:47 10° S 05:47:08 84° WSW 05:51:27 10° NNW visible
29 Jan 5.5 04:45:10 10° ESE 04:47:12 13° ENE 04:49:14 10° NE visible
30 Jan 4.9 05:01:43 10° SE 05:05:11 23° ENE 05:08:37 10° NNE visible
30 Jan 6.0 18:49:22 10° WNW 18:49:59 10° WNW 18:50:37 10° W visible
31 Jan 3.9 05:19:04 10° SSE 05:23:10 42° ENE 05:27:14 10° N visible
01 Feb 2.7 05:36:49 10° SSE 05:41:09 79° ENE 05:45:28 10° N visible
